Location: Chaumontel
(49.1247°N, 2.4324°E)
Time: 13:51:39
(UTC+00:00)

COSMOS 2428 - Pass Details

Date: 04 August 2024
Orbit: 842 x 857 km, 70.9° (Epoch: 14 September)

Event Time Altitude Azimuth Distance (km) Brightness Sun altitude
Exits shadow 01:41:26 - 141° (SE) 2,881 5.2 -19.8°
Reaches altitude 10° 01:43:14 10° 128° (SE) 2,464 5.0 -19.6°
Maximum altitude 01:46:07 14° 97° (E) 2,176 5.1 -19.4°
Drops below altitude 10° 01:49:01 10° 66° (ENE) 2,479 5.9 -19.2°
Sets 01:52:38 0° 43° (NE) 3,424 7.3 -18.9°
